• En España
  • Lista de países
  • Para 7 días
  • Temperatura del agua
  • Mapa Satelital
  • El tiempo en el mapa
  • Informadores
  • user-avatar
    Iniciar sesión

    Tiempo cada hora Orsha

    Hoy, 26 Febrero, Lunes

    Tiempo Temperatura Precipitaciones Viento Presión Humedad
    00:00 -21°C° 0 mm 2 mps 752 mmHg 96%
    01:00 -21°C° 0 mm 2 mps 752 mmHg 97%
    02:00 -21°C° 0 mm 2 mps 753 mmHg 97%
    03:00 -21°C° 0 mm 2 mps 752 mmHg 98%
    04:00 -23°C° 0 mm 2 mps 752 mmHg 98%
    05:00 -20°C° 0 mm 1 mps 752 mmHg 98%
    06:00 -20°C° 0 mm 1 mps 752 mmHg 98%
    07:00 -20°C° 0 mm 1 mps 752 mmHg 98%
    08:00 -20°C° 0 mm 1 mps 752 mmHg 98%
    09:00 -18°C° 0 mm 1 mps 752 mmHg 94%
    10:00 -17°C° 0 mm 1 mps 752 mmHg 91%
    11:00 -16°C° 0 mm 1 mps 752 mmHg 88%
    12:00 -15°C° 0 mm 1 mps 752 mmHg 86%
    13:00 -14°C° 0 mm 1 mps 752 mmHg 83%
    14:00 -14°C° 0 mm 1 mps 752 mmHg 81%
    15:00 -14°C° 0 mm 1 mps 752 mmHg 83%
    16:00 -15°C° 0 mm 1 mps 752 mmHg 86%
    17:00 -16°C° 0 mm 1 mps 752 mmHg 88%
    18:00 -17°C° 0 mm 1 mps 752 mmHg 90%
    19:00 -18°C° 0 mm 1 mps 752 mmHg 92%
    20:00 -19°C° 0 mm 1 mps 752 mmHg 94%
    21:00 -20°C° 0 mm 1 mps 752 mmHg 95%
    22:00 -20°C° 0 mm 1 mps 752 mmHg 95%
    23:00 -20°C° 0 mm 1 mps 752 mmHg 96%

    Mañana, 27 Febrero, Martes

    Tiempo Temperatura Precipitaciones Viento Presión Humedad
    00:00 -21°C° 0 mm 1 mps 753 mmHg 96%
    01:00 -24°C° 0 mm 2 mps 753 mmHg 96%
    02:00 -25°C° 0 mm 2 mps 753 mmHg 96%
    03:00 -25°C° 0 mm 2 mps 753 mmHg 97%
    04:00 -25°C° 0 mm 2 mps 754 mmHg 97%
    05:00 -26°C° 0 mm 2 mps 754 mmHg 97%
    06:00 -26°C° 0 mm 2 mps 754 mmHg 97%
    07:00 -27°C° 0 mm 3 mps 754 mmHg 97%
    08:00 -27°C° 0 mm 3 mps 755 mmHg 97%
    09:00 -25°C° 0 mm 3 mps 755 mmHg 95%
    10:00 -23°C° 0 mm 3 mps 756 mmHg 94%
    11:00 -22°C° 0 mm 3 mps 756 mmHg 92%
    12:00 -22°C° 0 mm 4 mps 756 mmHg 90%
    13:00 -20°C° 0 mm 4 mps 756 mmHg 89%
    14:00 -19°C° 0 mm 4 mps 757 mmHg 87%
    15:00 -19°C° 0 mm 4 mps 757 mmHg 88%
    16:00 -19°C° 0 mm 4 mps 757 mmHg 88%
    17:00 -20°C° 0 mm 4 mps 757 mmHg 89%
    18:00 -21°C° 0 mm 5 mps 757 mmHg 90%
    19:00 -22°C° 0 mm 5 mps 757 mmHg 90%
    20:00 -22°C° 0 mm 5 mps 758 mmHg 91%
    21:00 -22°C° 0 mm 5 mps 758 mmHg 91%
    22:00 -24°C° 0 mm 5 mps 758 mmHg 91%
    23:00 -24°C° 0 mm 6 mps 758 mmHg 91%

    Pasado mañana, 28 Febrero, Miércoles

    Tiempo Temperatura Precipitaciones Viento Presión Humedad
    00:00 -24°C° 0 mm 6 mps 758 mmHg 91%
    01:00 -24°C° 0 mm 6 mps 758 mmHg 91%
    02:00 -24°C° 0 mm 6 mps 758 mmHg 91%
    03:00 -26°C° 0 mm 6 mps 758 mmHg 90%
    04:00 -26°C° 0 mm 6 mps 758 mmHg 90%
    05:00 -26°C° 0 mm 6 mps 757 mmHg 90%
    06:00 -26°C° 0 mm 7 mps 757 mmHg 89%
    07:00 -26°C° 0 mm 7 mps 757 mmHg 88%
    08:00 -26°C° 0 mm 7 mps 757 mmHg 87%
    09:00 -25°C° 0 mm 7 mps 757 mmHg 85%
    10:00 -24°C° 0 mm 8 mps 757 mmHg 84%
    11:00 -23°C° 0 mm 8 mps 756 mmHg 83%
    12:00 -22°C° 0 mm 8 mps 756 mmHg 82%
    13:00 -21°C° 0 mm 8 mps 756 mmHg 81%
    14:00 -19°C° 0 mm 8 mps 756 mmHg 81%
    15:00 -21°C° 0,1 mm 8 mps 755 mmHg 81%
    16:00 -20°C° 0,1 mm 7 mps 755 mmHg 82%
    17:00 -20°C° 0,1 mm 7 mps 755 mmHg 83%
    18:00 -20°C° 0,1 mm 7 mps 755 mmHg 84%
    19:00 -20°C° 0,1 mm 7 mps 755 mmHg 86%
    20:00 -21°C° 0,1 mm 7 mps 755 mmHg 87%
    21:00 -21°C° 0,1 mm 7 mps 755 mmHg 88%
    22:00 -21°C° 0,1 mm 6 mps 755 mmHg 88%
    23:00 -21°C° 0,1 mm 6 mps 754 mmHg 88%

    1 Marzo, Jueves

    Tiempo Temperatura Precipitaciones Viento Presión Humedad
    00:00 -21°C° 0,1 mm 6 mps 754 mmHg 89%
    01:00 -21°C° 0,1 mm 6 mps 754 mmHg 89%
    02:00 -21°C° 0,1 mm 6 mps 754 mmHg 90%
    03:00 -21°C° 0,1 mm 6 mps 754 mmHg 90%
    04:00 -21°C° 0,1 mm 5 mps 754 mmHg 90%
    05:00 -21°C° 0,1 mm 5 mps 754 mmHg 91%
    06:00 -21°C° 0,1 mm 5 mps 754 mmHg 91%
    07:00 -21°C° 0,1 mm 5 mps 754 mmHg 91%
    08:00 -20°C° 0,1 mm 5 mps 754 mmHg 91%
    09:00 -20°C° 0 mm 5 mps 754 mmHg 90%
    10:00 -19°C° 0 mm 5 mps 754 mmHg 90%
    11:00 -18°C° 0 mm 5 mps 754 mmHg 89%
    12:00 -17°C° 0 mm 5 mps 754 mmHg 90%
    13:00 -15°C° 0 mm 5 mps 754 mmHg 90%
    14:00 -15°C° 0 mm 5 mps 753 mmHg 90%
    15:00 -15°C° 0,1 mm 5 mps 753 mmHg 91%
    16:00 -15°C° 0,1 mm 5 mps 753 mmHg 91%
    17:00 -15°C° 0,1 mm 5 mps 753 mmHg 92%
    18:00 -15°C° 0,3 mm 5 mps 752 mmHg 92%
    19:00 -15°C° 0,3 mm 5 mps 752 mmHg 93%
    20:00 -16°C° 0,3 mm 6 mps 752 mmHg 93%
    21:00 -15°C° 0,4 mm 6 mps 752 mmHg 93%
    22:00 -15°C° 0,4 mm 6 mps 751 mmHg 93%
    23:00 -15°C° 0,4 mm 6 mps 751 mmHg 93%

    2 Marzo, Viernes

    Tiempo Temperatura Precipitaciones Viento Presión Humedad
    00:00 -15°C° 0,4 mm 6 mps 751 mmHg 92%
    01:00 -14°C° 0,4 mm 5 mps 750 mmHg 92%
    02:00 -14°C° 0,4 mm 5 mps 750 mmHg 92%
    03:00 -14°C° 0,2 mm 5 mps 750 mmHg 91%
    04:00 -15°C° 0,2 mm 5 mps 749 mmHg 91%
    05:00 -15°C° 0,2 mm 4 mps 749 mmHg 91%
    06:00 -15°C° 0,1 mm 4 mps 749 mmHg 91%
    07:00 -15°C° 0,1 mm 4 mps 749 mmHg 91%
    08:00 -15°C° 0,1 mm 4 mps 749 mmHg 91%
    09:00 -14°C° 0,1 mm 4 mps 749 mmHg 91%
    10:00 -14°C° 0,1 mm 4 mps 748 mmHg 90%
    11:00 -12°C° 0,1 mm 4 mps 748 mmHg 90%
    12:00 -12°C° 0,1 mm 4 mps 748 mmHg 90%
    13:00 -11°C° 0,1 mm 4 mps 748 mmHg 89%
    14:00 -10°C° 0,1 mm 3 mps 747 mmHg 89%
    15:00 -10°C° 0,1 mm 3 mps 747 mmHg 90%
    16:00 -10°C° 0,1 mm 3 mps 747 mmHg 91%
    17:00 -10°C° 0,1 mm 3 mps 747 mmHg 92%
    18:00 -10°C° 0 mm 3 mps 746 mmHg 93%
    19:00 -12°C° 0 mm 3 mps 746 mmHg 94%
    20:00 -12°C° 0 mm 3 mps 746 mmHg 95%
    21:00 -12°C° 0 mm 3 mps 746 mmHg 95%
    22:00 -10°C° 0 mm 2 mps 746 mmHg 95%
    23:00 -10°C° 0 mm 2 mps 745 mmHg 96%

    3 Marzo, Sábado

    Tiempo Temperatura Precipitaciones Viento Presión Humedad
    00:00 -10°C° 0 mm 2 mps 745 mmHg 96%
    01:00 -10°C° 0 mm 2 mps 745 mmHg 96%
    02:00 -10°C° 0 mm 2 mps 745 mmHg 96%
    03:00 -12°C° 0 mm 2 mps 744 mmHg 97%
    04:00 -12°C° 0 mm 2 mps 744 mmHg 97%
    05:00 -12°C° 0 mm 2 mps 744 mmHg 97%
    06:00 -12°C° 0 mm 2 mps 743 mmHg 97%
    07:00 -12°C° 0 mm 2 mps 743 mmHg 97%
    08:00 -12°C° 0 mm 2 mps 743 mmHg 96%
    09:00 -10°C° 0 mm 2 mps 743 mmHg 94%
    10:00 -9°C° 0 mm 2 mps 743 mmHg 92%
    11:00 -8°C° 0 mm 2 mps 743 mmHg 90%
    12:00 -7°C° 0 mm 2 mps 743 mmHg 89%
    13:00 -7°C° 0 mm 2 mps 742 mmHg 88%
    14:00 -4°C° 0 mm 1 mps 742 mmHg 87%
    15:00 -4°C° 0 mm 1 mps 742 mmHg 88%
    16:00 -6°C° 0 mm 1 mps 742 mmHg 89%
    17:00 -6°C° 0 mm 1 mps 742 mmHg 91%
    18:00 -7°C° 0 mm 1 mps 742 mmHg 91%
    19:00 -8°C° 0 mm 1 mps 742 mmHg 92%
    20:00 -9°C° 0 mm 1 mps 742 mmHg 93%
    21:00 -9°C° 0 mm 1 mps 742 mmHg 94%
    22:00 -10°C° 0 mm 1 mps 742 mmHg 95%
    23:00 -10°C° 0 mm 1 mps 742 mmHg 95%
    Mostrar más